Location: Red Deer
(52.2681°N, 113.8112°W)
Time: 03:48:28
(UTC-06:00)

Oscar 19 - Visible Passes

Search period start: 16 May 2022 00:00
Search period end: 26 May 2022 00:00
Orbit: 774 x 789 km, 98.8° (Epoch: 15 May)

Date Brightness Start Highest point End Pass type
(mag) Time Alt. Az. Time Alt. Az. Time Alt. Az.
16 May 12.6 04:11:12 10° NE 04:15:31 26° E 04:19:49 10° SSE visible
17 May 13.2 03:40:14 10° NE 03:43:06 15° E 03:45:56 10° ESE visible
18 May 11.6 04:46:03 10° NNE 04:51:06 47° E 04:56:04 10° S visible
19 May 12.5 04:14:25 10° NE 04:18:49 27° E 04:23:11 10° SSE visible
20 May 13.1 03:43:21 10° NE 03:46:24 16° E 03:49:26 10° ESE visible
22 May 12.4 04:17:38 10° NE 04:22:07 29° E 04:26:33 10° SSE visible
23 May 13.1 03:46:29 10° NE 03:49:43 16° E 03:52:54 10° SE visible
25 May 12.4 04:20:51 10° NNE 04:25:24 30° E 04:29:55 10° SSE visible
